This demonstration page uses our WeatherBlox Daily Observations layout. Learn more.

Left ArrowRight Arrow

Hourly Observations for January 20, 2022

Temp ( °F °C ) Dew Point ( °F °C ) Humidity (%) Winds ( mph kmh ) Pressure ( in mb ) Visibility ( mi km ) Precip ( " mm )
12:53 am 00:53 Clear 52 11.1 34 1.1 50 50 SSW 5 7 30.04 1017 10 16 0.00 0.00
1:53 am 01:53 Cloudy 52 11.1 36 2.2 55 55 SW 7 11 30.04 1017 10 16 0.00 0.00
2:53 am 02:53 Cloudy with Light Rain 50 10 45 7.2 83 83 SSW 14 22 30.06 1018 8 13 0.06 1.52
3:53 am 03:53 Cloudy with Light Rain 49 9.4 46 7.8 90 90 SSW 6 9 30.03 1017 10 16 0.05 1.27
4:53 am 04:53 Cloudy with Light Rain 50 10 48 8.9 93 93 S 6 9 30.00 1016 8 13 0.04 1.02
5:29 am 05:29 Cloudy with Light Rain 50 10 48 8.9 93 93 N 7 11 30.02 1017 7 11 0.04 1.02
5:53 am 05:53 Cloudy with Light Rain 50 10 49 9.4 96 96 NNW 3 6 30.02 1017 9 14 0.05 1.27
6:00 am 06:00 Cloudy with Light Rain 50 10 49 9.4 96 96 S 3 6 30.04 1017 10 16 0.00 0.00
6:32 am 06:32 Cloudy 50 10 50 10 100 100 Calm 30.06 1018 10 16 0.00 0.00
6:53 am 06:53 Cloudy 51 10.6 50 10 96 96 S 5 7 30.04 1017 10 16 0.00 0.00
7:53 am 07:53 Cloudy with Light Rain 51 10.6 50 10 96 96 SW 5 7 30.06 1018 7 11 0.01 0.25
8:53 am 08:53 Cloudy with Light Rain 51 10.6 50 10 96 96 SW 6 9 30.07 1018 5 8 0.02 0.51
9:53 am 09:53 Cloudy with Light Rain 47 8.3 45 7.2 93 93 NW 8 13 30.09 1019 10 16 0.01 0.25
10:53 am 10:53 Cloudy with Light Rain 44 6.7 42 5.6 93 93 NW 14 22 30.11 1020 10 16 0.01 0.25
11:53 am 11:53 Cloudy with Light Rain 42 5.6 39 3.9 89 89 NW 12 19 30.12 1020 10 16 0.01 0.25
12:53 pm 12:53 Cloudy with Light Rain 41 5 39 3.9 93 93 NNW 7 11 30.11 1020 10 16 0.01 0.25
1:53 pm 13:53 Cloudy with Light Rain 40 4.4 37 2.8 89 89 NNW 7 11 30.10 1019 7 11 0.01 0.25
2:53 pm 14:53 Cloudy 39 3.9 37 2.8 93 93 NNW 8 13 30.11 1020 10 16 0.00 0.00
3:53 pm 15:53 Cloudy 39 3.9 36 2.2 89 89 NW 7 11 30.11 1020 10 16 0.00 0.00
4:40 pm 16:40 Cloudy 39 3.9 34 1.1 82 82 VRB 6 9 30.16 1021 10 16 0.00 0.00
4:53 pm 16:53 Cloudy 39 3.9 34 1.1 82 82 NNW 8 13 30.13 1020 10 16 0.00 0.00
5:09 pm 17:09 Cloudy 39 3.9 34 1.1 82 82 VRB 6 9 30.16 1021 10 16 0.00 0.00
5:53 pm 17:53 Cloudy 38 3.3 33 0.6 83 83 NW 10 17 30.14 1021 10 16 0.00 0.00
6:41 pm 18:41 Cloudy 37 2.8 32 0 82 82 VRB 6 9 30.20 1023 10 16 0.00 0.00
6:53 pm 18:53 Cloudy 37 2.8 32 0 82 82 NNW 12 19 30.17 1022 10 16 0.00 0.00
7:53 pm 19:53 Cloudy 35 1.7 30 -1.1 82 82 NNW 15 24 30.19 1023 10 16 0.00 0.00
8:53 pm 20:53 Cloudy 34 1.1 29 -1.7 82 82 NW 9 15 30.23 1024 10 16 0.00 0.00
9:53 pm 21:53 Cloudy 33 0.6 28 -2.2 82 82 NNW 9 15 30.23 1024 10 16 0.00 0.00
10:53 pm 22:53 Cloudy 32 0 27 -2.8 82 82 NNW 8 13 30.23 1024 10 16 0.00 0.00
11:53 pm 23:53 Cloudy 31 -0.6 27 -2.8 85 85 NW 7 11 30.24 1024 8 13 0.00 0.00

Powered by AerisWeather